Regional Weather Roundup
Issued by NWS

Home | Current Version | Previous Version | Graphics & Text | Print | Product List | Glossary On
Versions: 1 2 3 4 5 6 7 8 9 10 11 12 13 14 15 16 17 18 19 20 21 22 23 24 25 26 27 28 29 30 31 32 33 34 35 36 37 38 39 40 41 42 43 44 45 46 47 48 49 50
000
ASUS43 KMKX 270259
RWRWI

WISCONSIN REGIONAL WEATHER ROUNDUP
NATIONAL WEATHER SERVICE MILWAUKEE/SULLIVAN WI
1000 PM CDT THU APR 26 2018

NOTE: "FAIR" INDICATES FEW OR NO CLOUDS BELOW 12,000 FEET WITH NO
SIGNIFICANT WEATHER AND/OR OBSTRUCTIONS TO VISIBILITY.

WIZ001-002-006>008-014>016-023>028-270400-
NORTHWEST WISCONSIN

CITY           SKY/WX    TMP DP  RH WIND       PRES   REMARKS
SUPERIOR ARPT  FAIR      38  31  76 CALM      29.91R
ASHLAND        FAIR      36  32  85 CALM      29.90S
HAYWARD        FAIR      37  28  70 CALM      29.89R
SIREN          FAIR      43  24  48 NW6       29.91R
CUMBERLAND     FAIR      45  27  49 CALM      29.89S
RICE LAKE      FAIR      42  32  68 CALM      29.91S
CHETEK         FAIR      43  32  65 CALM      29.90R
LADYSMITH      FAIR      42  32  69 CALM      29.90S
EAU CLAIRE     FAIR      48  35  60 NE6       29.88R
MENOMONIE      FAIR      51  32  49 NW7       29.89R
NEW RICHMOND   FAIR      47  28  47 NW7       29.91S
OSCEOLA        FAIR      50  27  40 NW8       29.94S
$$

WIZ003>005-009-010-017-018-270400-
NORTH CENTRAL WISCONSIN

CITY           SKY/WX    TMP DP  RH WIND       PRES   REMARKS
MANITOWISH WTR FAIR      31  31 100 CALM      29.88S
ARBOR VITAE    FAIR      37  34  91 CALM      29.88S
WOODRUFF       FAIR      37  34  91 CALM      29.88S
RHINELANDER    FAIR      36  33  89 CALM      29.88S
EAGLE RIVER    FAIR      32  29  86 NW3       29.87S
LAND O LAKES   FAIR      30  29  96 CALM      29.89S
PHILLIPS       FAIR      33  29  82 CALM      29.88S
TOMAHAWK       FAIR      36  32  84 CALM      29.89S
MEDFORD        FAIR      39  32  76 N6        29.87S
MERRILL        FAIR      40  33  77 N6        29.89R
$$

WIZ029-030-035-036-043>047-270400-
CENTRAL WISCONSIN

CITY           SKY/WX    TMP DP  RH WIND       PRES   REMARKS
WAUSAU         FAIR      44  33  65 N12G21    29.86R
MOSINEE        MOCLDY    45  34  65 N16       29.88R
MARSHFIELD     FAIR      45  34  65 N12G18    29.86R
STEVENS POINT  CLOUDY    47  33  56 N10G20    29.85R
WAUPACA        LGT RAIN  52  38  60 N21G28    29.81R
WAUTOMA        LGT RAIN  49  41  74 N15G22    29.82R
WISC RAPIDS    MOCLDY    49  32  52 N16       29.86R
CAMP DOUGLAS   MOCLDY    53  36  53 N16       29.85R
$$

WIZ011>013-019>022-031-037>040-048>050-270400-
NORTHEAST WISCONSIN

CITY           SKY/WX    TMP DP  RH WIND       PRES   REMARKS
ANTIGO         CLOUDY    41  35  79 N14       29.86S
SHAWANO        CLOUDY    51  35  53 N14       29.84R
OCONTO         CLOUDY    49  33  52 NE15G24   29.83R
STURGEON BAY   CLOUDY    43  34  70 N16       29.85R
GREEN BAY      CLOUDY    47  35  63 NE25G36   29.82R
MANITOWOC      MOCLDY    43  35  73 CALM      29.77S
APPLETON       MOCLDY    55  28  35 NW22G35   29.77R
CLINTONVILLE   LGT RAIN  51  33  50 N12G21    29.84R
OSHKOSH        CLOUDY    57  35  43 SW5       29.75S
$$

WIZ032>034-041-042-053>061-270400-
SOUTHWEST WISCONSIN

CITY           SKY/WX    TMP DP  RH WIND       PRES   REMARKS
LA CROSSE      FAIR      56  34  43 NW10      29.84R
SPARTA         FAIR      57  37  47 N15G23    29.85R
VIROQUA        FAIR      56  38  50 NW13      29.83R
BOSCOBEL       FAIR      60  41  49 W3        29.82R
PRAIRIE DU CHI FAIR      58  35  41 NW9       29.83R
PLATTEVILLE    FAIR      57  43  59 W8        29.82R
$$

WIZ056-057-062-063-064-067-068-270400-
SOUTH CENTRAL WISCONSIN

CITY           SKY/WX    TMP DP  RH WIND       PRES   REMARKS
REEDSBURG      CLOUDY    60  39  46 N13G18    29.80R
BARABOO/DELLS  CLOUDY    59  32  35 W5        29.78S
LONE ROCK      NOT AVBL
MINERAL POINT  FAIR      55  37  50 W6        29.81R
MADISON        MOCLDY    55  34  45 CALM      29.77S
MIDDLETON      CLOUDY    52  35  50 W6        29.79S
WATERTOWN      FAIR      53  33  45 CALM      29.77F
MONROE         FAIR      59  28  31 SW8       29.79S
JANESVILLE     FAIR      59  28  31 S3        29.78F
$$

WIZ051-052-058>065-066-070>072-270400-
SOUTHEAST WISCONSIN

CITY           SKY/WX    TMP DP  RH WIND       PRES   REMARKS
MILWAUKEE      CLOUDY    52  28  39 S5        29.79F
WAUKESHA       FAIR      55  28  35 S5        29.79F
MILWAUKEE/TIMM FAIR      54  28  37 S7        29.79F
RACINE         FAIR      51  27  39 S12       29.81F
BURLINGTON     FAIR      52  32  46 S5        29.79F
KENOSHA        FAIR      50  28  42 S8        29.80F
FOND DU LAC    MOCLDY    50  37  61 SW6       29.76S
SHEBOYGAN      FAIR      44  35  70 S6        29.76F
WEST BEND      FAIR      54  30  40 CALM      29.77F
JUNEAU         MOCLDY    55  32  42 CALM      29.78S
$$

LSZ147-162-270400-
LAKE SUPERIOR

STATION/POSITION TIME  TEMP    WIND        PRES    WAVE
                       AIR SEA DIR/SP/G            HT/PER
                 (UTC) (F)     (DEG/KT/KT) (MB)    (FT/S)
DEVILS ISLAND    0200   45     170/  7/  8 1012.9R
SAXON HARBOR     0230   35     190/  2/  3 1011.9S
$$

LMZ867-665-643>646-270400-
LAKE MICHIGAN

STATION/POSITION TIME  TEMP    WIND        PRES    WAVE
                       AIR SEA DIR/SP/G            HT/PER
                 (UTC) (F)     (DEG/KT/KT) (MB)    (FT/S)
NORTHPORT PIER   0240   38                 1011.2R
KEWAUNEE LAKESHO 0230   42     170/  9/ 10 1007.5S
SHEBOYGAN LAKESH 0200   45     190/ 13/ 14 1008.6F
PORT WASHINGTON  0230   44     190/  6/  8 1009.5F
MILWAUKEE LAKESH 0230   48     160/  6/  7   N/A
KENOSHA   LAKESH 0200   46                 1009.5
$$

TC  - TEMPERATURE IN CELSIUS
VSB - VISIBILITY IN STATUTE MILES
WCI - WIND CHILL INDEX
HX  - HEAT INDEX




USA.gov is the U.S. government's official web portal to all federal, state and local government web resources and services.